Location: Newark
(48.5156°N, 1.8989°W)
Time: 19:25:18
(UTC+00:00)

Transit 4A - Pass Details

Date: 23 November 2019
Orbit: 870 x 975 km, 66.8° (Epoch: 12 December)

Event Time Altitude Azimuth Distance (km) Brightness Sun altitude
Exits shadow 05:56:00 14° 321° (NW) 2,274 9.5 -14.7°
Maximum altitude 06:01:06 71° 239° (WSW) 929 7.8 -13.9°
Drops below altitude 10° 06:06:52 10° 157° (SSE) 2,512 10.7 -13.0°
Sets 06:09:19 0° 155° (SSE) 3,444 11.5 -12.6°
